Погода в Янгеле

Россия / Иркутская область     57°04′51″N   103°38′53″E
темп.,
°C
ветер,
м/с
пор.,
м/с
влажн.,
%
обл.,
%
осадки,
мм/ч
давл.,
гПа
погр.,
м
29 июля, чт
чт2923:00+22ююв0040100 0.0 100111
02:00+19св115192 0.0 100111
05:00+17св115710 0.0 100111
08:00+23всв11482 0.0 1001193
11:00+30ююз01330 0.0 10011091
14:00+32зсз2327100 0.0 9993099
17:00+29зсз4437100 0.0 1000450
20:00+19з4108962 0.4 1003412
30 июля, пт
пт3023:00+17зсз2996100 1.0 1005401
02:00+16з269951 1.4 1006264
05:00+15з379893 0.1 1007347
08:00+16зсз3694100 0.2 1008391
11:00+17зсз2386100 0.1 1009505
14:00+20зсз236749 0.1 1008853
17:00+24зюз325129 0.0 10081206
20:00+22юз246599 0.0 1008163
31 июля, сб
сб3123:00+15ююз239595 0.0 101059
02:00+14ююз229720 0.0 101127
05:00+13юз119792 0.0 101217
08:00+18зюз1274100 0.0 1013256
11:00+23зсз2355100 0.0 10131044
14:00+25сз235496 0.4 10121526
17:00+24сз2358100 0.4 1012773
20:00+20сз2377100 0.4 101257
1 августа, вс
вс123:00+16ссз1192100 0.1 101311
02:00+16ссз118998 0.1 101211
05:00+16с2392100 0.0 101191
08:00+16с1390100 0.0 1011147
11:00+24св2351100 0.0 1009671
14:00+29ссв2336100 0.0 10061664
17:00+29св4529100 0.0 10041589
20:00+23всв2540100 0.0 100497
2 августа, пн
пн223:00+18всв2252100 0.0 100439
02:00+16с1157100 0.0 100415
05:00+15ссв2351100 0.0 100347
08:00+18вюв0151100 0.0 1003166
11:00+23ююз1248100 0.0 1003753
14:00+27юз1244100 0.0 10021396
17:00+27зюз2244100 0.0 10021637
20:00+22зюз3763100 0.0 1003303